Location: Unspecified
(0.0000°N, 0.0000°E)
Time: 23:17:35
(UTC+00:00)

LightSail 2 - Pass Details

Date: 22 February 2020
Orbit: 698 x 724 km, 24.0° (Epoch: 26 February)

Event Time Altitude Azimuth Distance (km) Brightness Sun altitude
Rises 19:50:32 0° 225° (SW) 3,066 9.3 -23.9°
Reaches altitude 10° 19:53:21 10° 211° (SSW) 2,147 8.1 -24.5°
Enters shadow 19:57:01 24° 165° (SSE) 1,410 6.6 -25.4°
